sat.trackr.live / text

‹ back to catalog

FORMOSAT 7-2

NORAD 44351 · 2019-036N

PAYLOAD ACTIVE UNKNOWN

§ Identity

Operator
Country
ROC
Launch date
2019-06-25
Launch site
AFETR
Launch vehicle
Mass (kg)
RCS (m²)

External: N2YO · Heavens-Above · Gunter

§ Orbital elements

Epoch: 2026-05-24T18:05:22.560576Z

Period
96.23 min
Inclination
23.9993°
Eccentricity
0.0000323
Mean motion
14.96386186 rev/d
Perigee alt
577.8 km
Apogee alt
578.3 km
Semi-major
6,956.2 km
B*
1.6496e-4
RAAN
306.7842°
Arg perigee
293.4166°
Mean anomaly
66.6301°
Rev number
38,007

§ Raw data

FORMOSAT 7-21 44351U 19036N   26144.75373334  .00002216  00000+0  16496-3 0  99972 44351  23.9993 306.7842 0000323 293.4166  66.6301 14.96386186380075

JSON: /api/v1/satellites/44351 · /tle

For live sub-satellite position, see the globe view (requires WebGL).

§ Visibility from observer

Set your observer location to see the next 7 days of passes ≥ 10°. The values pass through the URL so the page stays shareable.

No JS? Fill the form by hand. The geolocation button needs JavaScript.

§ Radio — SatNOGS DB

ModeDescriptionDownlinkUplink
CW Downlink 400.900 MHz
FM Mode S TT&C 2.264 GHz
FM Mode S2 2.200 GHz

3 transmitters · refreshed weekly from db.satnogs.org